SCP
0 0 0 0 0 0 0 0 0 0 0 0 0 0 0 0 0 -0 -0 -0 -0 0 0 0 0 0 0 0 0 0 0 0 0 0 0 0 0 0 0 0 0 0 0
0 0 0 0 0 0 0 0 0 -0 -0 0 0 0 0 0 0 0 0 0 0 0 0 0 0 0 0 0 0 0 0 0 0 0 0 0 0 0 0 0 0 0 0
0 0 0 0 0 0 0 0 0 0 0 0 0 0 0 0 0 0 0 0 0 0 0 0 0 0 0 0 0 0 0 0 0 0 0 0 0 0 0 0 0 0 0
0 0 0 0 0 0 0 0 0 0 0 0 0 0 0 0 0 0 0 0 0 0 0 0 0 0 0 0 0 0 0 0 0 0 0 0 0 0 0 0 0 0 0
0 0 0 0 0 0 0 0 0 0 0 0 0 0 0 0 0 0 0 0 0 0 0 0 0 0 0 0 0 0 0 0 0 0 0 0 0 0 0 0 0 0 0
0 0 0 0 0 0 0 0 0 0 0 0 0 0 0 0 0 0 0 0 0 0 0 0 0 0 0 0 0 0 0 0 0 0 0 0 0 0 0 0 0 0 0
0 0 0 0 0 0 0 0 0 0 0 0 0 0 0 0 0 0 0 0 0 0 0 0 0 0 0 0 0 0 0 0 0 0 0 0 0 0 0 0 0 0 0
0 0 0 0 0 0 0 0 0 0 0 -0 0 0 0 0 0 0 0 0 0 0 0 0 0 0 0 0 0 0 0 0 0 0 0 0 0 0 0 0 0 0 0
0 0 0 0 0 0 0 -0 -0 -0 -0 -0 0 0 0 0 0 0 0 0 0 0 0 0 0 0 0 0 0 0 0 0 0 0 0 0 0 0 0 0 0 0 0
0 0 0 0 0 0 -0 -0 -0 -0 -0 -0 0 0 0 0 0 0 0 0 0 0 0 0 0 0 0 0 0 0 0 0 0 0 0 0 0 0 0 0 0 0 0
0 0 0 0 0 0 0 -0 -0 -0 0 0 0 0 0 0 0 0 0 0 0 0 0 0 0 0 0 0 0 0 0 0 0 0 0 0 0 0 0 0 0 0 0
0 0 0 0 0 0 -0 -0 -0 -0 0 0 0 0 0 0 0 0 0 0 0 0 0 0 0 0 0 0 0 0 0 0 0 0 0 0 0 0 0 0 0 0 0
0 0 0 0 -0 -0 -0 -0 -0 0 0 0 0 0 0 0 0 0 0 0 0 0 0 0 0 0 0 0 0 0 0 0 0 0 0 0 0 0 0 0 0 0 0
0 0 0 0 0 -0 -0 0 0 0 0 0 0 0 0 0 0 0 0 0 0 0 0 0 0 0 0 0 0 0 0 0 0 0 0 0 0 0 0 0 0 0 0
-0 -0 -0 -0 -0 -0 0 0 0 0 -0 -0 -0 -0 -0 0 0 0 0 0 0 0 0 0 0 0 0 0 0 0 0 0 0 0 0 0 0 0 0 0 0 0 0
-0 -0 -0 -0 0 -0 0 -0 -0 -0 -0 -0 0 0 0 0 0 0 0 0 0 0 0 0 0 0 0 0 0 0 0 0 0 -0 -0 -0 -0 -0 -0 -0 0 0 0
0 -0 0 -0 0 0 0 -0 -0 -0 -0 0 0 0 0 0 0 0 0 0 0 0 0 0 0 0 0 0 0 0 -0 -0 -0 -0 0 0 0 -0 -0 -0 0 0 0
0 -0 -0 0 -0 -0 -0 0 0 -0 -0 -0 0 -0 0 0 0 0 0 0 0 0 0 0 0 0 0 0 0 0 0 0 0 0 0 0 0 0 -0 -0 0 0 0
-0 0 0 0 -0 -0 -0 0 0 0 0 0 -0 0 0 0 0 0 0 0 0 0 -0 0 0 0 0 0 0 0 0 0 0 -0 0 -0 0 0 -0 0 -0 0 0
0 -0 0 0 -0 -0 -0 0 0 0 0 0 0 0 0 0 0 0 0 0 0 0 0 0 0 0 0 0 0 0 0 0 -0 0 0 0 0 0 0 0 0 0 0
-0 0 0 -0 0 -0 -0 -0 0 0 0 0 0 0 0 0 0 0 0 0 0 0 0 0 0 0 0 0 0 0 0 0 -0 0 0 0 0 0 0 0 0 0 0
-0 0 -0 -0 -0 -0 -0 -0 -0 0 0 0 0 0 0 0 0 0 0 0 0 0 0 0 0 0 0 0 0 -0 0 -0 -0 -0 -0 0 0 0 0 0 0 0 0
-0 -0 -0 -0 -0 0 -0 -0 0 0 0 0 0 0 0 0 0 0 0 0 0 0 0 0 0 -0 -0 0 -0 -0 -0 -0 -0 -0 -0 0 -0 0 0 0 0 0 0
0 0 -0 -0 -0 -0 0 0 0 0 0 0 0 0 0 0 0 0 0 0 0 0 0 0 0 0 0 -0 -0 -0 -0 -0 -0 -0 -0 -0 0 0 0 -0 0 0 0
0 -0 -0 -0 -0 0 0 0 0 0 0 0 0 0 0 0 0 0 0 0 0 0 0 0 -0 -0 -0 -0 0 -0 -0 -0 -0 -0 0 0 0 -0 0 0 -0 0 -0
-0 -0 -0 -0 0 0 0 0 0 0 0 0 0 0 0 0 0 0 0 0 0 0 0 0 0 -0 -0 -0 -0 -0 0 0 0 -0 -0 0 0 -0 0 -0 0 0 -0
Wind_Speed_500mb
21 17 8 7 8 7 9 12 13 14 17 19 26 25 27 22 17 32 51 55 68 58 53 50 45 45 46 46 47 49 54 60 72 75 71 67 64 58 52 52 49 51 56
30 24 23 25 27 26 27 27 26 29 29 23 3 6 6 5 20 25 36 37 38 39 37 40 44 45 51 53 58 62 65 67 74 89 86 83 78 68 64 63 49 54 64
25 23 22 17 15 17 16 13 10 11 12 9 6 3 2 11 22 28 33 38 41 44 47 53 54 59 69 70 74 76 79 83 86 95 100 88 91 83 79 64 63 70 70
19 18 15 16 19 17 15 14 10 5 4 3 4 8 13 16 20 24 28 33 38 40 45 51 56 61 67 69 75 78 74 77 78 85 90 84 84 77 72 72 73 66 64
12 13 17 14 12 13 15 17 17 19 18 19 21 22 25 27 33 42 46 49 53 56 58 62 65 67 67 69 70 72 69 71 72 73 79 72 72 73 83 84 79 67 64
13 8 9 9 10 9 12 17 23 26 29 32 35 38 41 42 46 52 57 61 63 66 72 74 75 77 78 77 73 67 65 69 80 84 89 83 78 74 58 60 68 68 73
12 10 13 16 19 22 26 32 37 41 43 45 47 49 49 48 47 47 47 50 54 57 61 65 69 70 72 73 75 74 74 73 70 70 79 81 79 77 80 75 61 67 70
28 32 34 36 37 41 45 47 49 51 53 54 51 47 46 47 49 51 56 61 65 66 68 69 70 71 70 68 65 69 78 81 82 84 87 90 90 87 79 73 71 75 77
24 34 40 46 49 52 55 58 59 60 58 57 57 59 62 65 62 57 52 49 50 49 47 45 46 48 46 45 50 54 58 63 62 62 60 59 56 53 60 65 72 75 78
24 30 39 45 53 58 59 60 60 62 66 69 72 69 63 53 42 38 33 40 46 52 55 56 53 50 43 42 46 50 60 66 65 67 73 62 54 55 58 61 64 73 75
27 36 41 42 47 52 57 59 64 71 78 68 58 50 44 37 29 31 37 47 46 49 53 56 54 55 58 53 49 50 53 55 59 65 68 71 74 72 74 64 58 65 71
35 41 46 51 53 57 64 70 75 76 61 51 47 40 33 29 33 37 43 42 44 49 56 59 59 58 59 59 57 57 59 60 59 61 61 64 65 70 62 51 48 50 58
48 53 58 62 65 68 73 76 69 52 45 42 36 33 35 36 37 43 46 52 57 55 54 59 63 64 59 55 53 50 46 43 43 50 48 50 50 49 47 43 38 39 40
67 66 66 68 68 63 55 45 41 36 33 29 29 34 37 38 43 49 58 61 52 52 51 47 51 50 46 43 46 39 30 29 37 46 48 47 49 48 51 44 40 35 41
63 61 56 47 40 34 29 28 27 23 21 26 27 29 37 45 50 54 49 42 45 45 48 46 41 38 39 39 28 17 18 28 42 43 52 60 59 51 49 34 34 40 47
45 36 29 26 25 25 24 19 14 16 12 11 13 26 36 43 48 40 34 38 36 34 35 36 38 39 33 23 21 26 34 37 35 45 56 46 42 33 34 39 40 41 46
22 20 20 21 21 20 22 24 24 11 9 9 19 26 35 39 35 34 34 30 28 27 30 29 32 27 29 34 36 38 38 43 51 48 41 49 43 44 34 33 38 42 43
13 15 19 19 19 19 20 21 20 20 20 19 22 26 26 29 31 30 29 30 33 30 29 25 18 27 41 42 39 49 53 39 39 44 45 20 13 2 22 30 24 29 36
12 18 20 19 18 18 17 17 19 20 21 22 22 22 28 29 29 24 24 29 30 30 23 11 17 35 39 46 58 52 41 38 39 36 34 6 5 7 35 22 12 14 19
10 12 15 17 18 20 23 26 27 29 30 30 31 33 33 32 34 33 29 29 25 32 17 16 23 40 39 47 56 62 55 61 34 28 21 11 6 17 26 20 21 13 30
12 17 21 25 29 29 28 29 32 38 41 39 37 33 30 32 34 36 35 28 24 24 18 15 30 37 36 42 49 55 57 59 59 33 27 20 17 20 22 18 20 30 34
31 30 31 34 35 37 41 44 43 41 42 45 44 41 37 36 36 36 33 29 24 15 14 19 26 31 33 41 45 46 48 56 62 57 39 32 34 30 23 20 11 18 33
43 45 44 44 44 44 45 47 47 48 50 50 51 51 49 49 46 43 39 32 25 20 15 17 23 31 33 34 36 40 43 46 50 55 55 43 36 32 18 12 15 20 30
32 33 33 33 36 38 40 42 42 48 48 50 53 54 55 56 56 52 47 40 31 24 22 20 21 31 39 35 34 33 36 37 41 45 49 48 27 45 10 6 10 30 37
36 37 36 35 36 38 39 40 41 43 45 48 51 54 56 56 58 59 56 50 44 39 31 26 26 29 31 33 36 35 33 33 36 37 38 45 38 48 31 11 22 22 31
27 30 33 33 34 37 39 41 43 44 46 46 48 52 56 58 58 58 57 56 54 51 48 42 36 31 30 32 35 38 38 39 37 37 36 37 40 36 32 13 3 23 35
Wind_Direction_500mb
104 106 97 41 310 328 326 287 294 273 265 261 256 247 256 258 241 232 236 250 241 247 240 244 253 263 267 275 276 275 275 276 280 287 286 288 288 290 287 287 283 282 296
94 91 78 84 85 85 84 82 80 83 78 46 273 331 313 268 256 267 258 254 247 249 253 262 268 275 281 282 281 280 279 277 280 281 283 285 286 293 290 285 274 280 296
107 106 105 96 94 86 84 86 68 52 40 57 87 113 230 253 247 243 247 247 251 256 260 263 266 269 271 271 274 277 279 281 278 279 282 284 285 285 285 280 271 282 284
86 73 60 37 27 18 4 354 339 327 305 298 266 257 258 263 268 265 257 256 260 262 264 265 264 265 267 269 269 268 269 270 273 275 279 282 282 283 280 278 275 275 279
38 37 44 29 360 326 315 315 317 320 316 303 289 281 276 270 270 271 272 273 273 272 270 267 266 267 268 270 272 271 273 275 277 277 277 280 280 273 270 275 273 274 273
333 355 26 8 351 347 323 320 315 312 310 307 302 297 294 290 283 279 277 277 278 278 276 276 279 280 282 283 284 287 284 279 277 276 275 273 275 275 277 272 270 266 267
335 329 318 317 313 310 308 305 304 306 306 304 303 303 303 303 302 300 296 291 287 286 286 286 285 283 283 283 282 280 278 277 275 277 274 274 277 277 276 272 266 268 267
323 324 313 308 306 303 303 306 306 306 308 310 310 310 309 307 304 298 294 290 287 286 284 284 285 287 287 287 288 284 280 280 281 280 277 277 275 274 275 273 272 270 269
317 315 311 309 308 309 311 314 316 315 314 310 308 306 304 302 301 300 300 297 296 298 299 301 303 303 301 296 290 289 286 284 283 282 282 279 274 271 270 274 272 268 264
317 299 302 305 305 309 313 315 314 313 312 309 305 304 303 304 306 307 303 305 307 310 310 311 312 314 309 296 290 292 291 292 293 289 279 278 272 269 267 266 267 259 255
298 301 303 305 307 308 309 309 311 312 312 309 308 309 307 309 308 310 311 309 313 313 314 314 314 311 308 303 298 292 293 297 293 290 285 274 272 274 276 269 262 252 248
293 296 299 302 303 305 306 308 309 310 309 309 308 309 315 317 320 316 313 318 323 319 314 312 310 309 309 304 297 296 292 287 285 289 289 285 277 278 284 276 263 251 241
299 299 298 298 300 300 302 304 307 307 310 314 325 331 332 335 329 319 319 323 323 318 315 313 312 308 302 298 297 299 293 287 281 286 288 287 287 286 286 279 265 253 245
304 301 299 299 299 300 302 303 306 312 316 322 327 330 328 329 327 326 323 323 321 316 314 310 306 305 303 304 304 302 289 283 299 308 301 293 294 279 276 270 267 261 248
305 306 307 308 309 310 314 321 320 323 319 320 326 326 326 326 326 319 317 321 323 322 317 323 327 327 324 318 323 324 321 307 308 303 294 290 287 276 273 267 264 254 255
309 314 319 325 328 330 331 336 348 351 349 336 313 314 323 319 320 324 327 328 328 328 336 346 350 346 337 355 349 330 321 310 306 305 306 300 287 282 262 258 258 251 251
324 336 340 339 344 350 351 350 351 19 2 339 324 326 325 326 331 333 333 335 339 352 354 352 350 0 3 353 343 333 317 308 313 315 305 302 291 278 275 262 260 257 253
357 5 349 345 345 344 344 345 347 353 348 339 337 331 336 347 347 343 341 344 353 1 358 354 15 3 355 360 346 334 339 347 337 339 338 328 332 186 292 277 233 225 227
30 19 24 23 23 23 23 21 16 9 1 351 341 354 8 5 359 358 359 4 3 6 2 11 359 360 7 2 358 353 358 356 345 346 354 152 155 333 336 224 199 211 200
35 28 34 37 42 50 54 55 46 37 30 23 15 9 8 5 11 14 15 14 13 18 28 359 357 5 17 6 13 25 23 14 16 11 15 347 213 340 8 87 112 146 159
69 71 74 78 74 66 57 51 46 47 42 37 31 25 17 16 17 17 18 17 13 12 18 356 360 3 8 5 14 24 20 15 29 45 38 40 14 5 54 102 66 125 150
90 88 84 78 75 70 66 60 54 52 52 47 42 39 33 31 28 23 20 20 16 360 348 337 334 344 351 360 6 11 13 15 17 28 34 27 39 39 44 81 99 100 140
94 90 85 81 76 72 69 66 61 55 54 52 48 44 40 38 34 30 25 22 18 9 341 316 314 317 329 339 356 359 3 7 10 12 16 12 36 19 3 94 80 152 174
85 86 82 75 73 70 65 64 59 60 54 52 50 47 44 43 39 35 32 27 25 19 7 349 324 298 303 310 323 340 347 354 357 3 7 9 10 352 90 233 151 165 156
80 82 80 75 71 68 66 62 58 56 53 51 50 48 45 43 42 38 36 33 30 26 19 3 352 343 334 322 316 311 313 324 336 344 353 357 6 13 47 99 168 155 166
86 78 73 73 71 66 62 59 56 53 51 49 47 45 44 42 41 38 35 32 31 31 28 23 13 359 344 334 324 315 306 298 302 314 327 338 353 7 26 59 81 205 198
Wind_Speed_850mb
21 17 8 7 8 7 9 12 13 14 17 19 26 25 27 22 17 32 51 55 68 58 53 50 45 45 46 46 47 49 54 60 72 75 71 67 64 58 52 52 49 51 56
30 24 23 25 27 26 27 27 26 29 29 23 3 6 6 5 20 25 36 37 38 39 37 40 44 45 51 53 58 62 65 67 74 89 86 83 78 68 64 63 49 54 64
25 23 22 17 15 17 16 13 10 11 12 9 6 3 2 11 22 28 33 38 41 44 47 53 54 59 69 70 74 76 79 83 86 95 100 88 91 83 79 64 63 70 70
19 18 15 16 19 17 15 14 10 5 4 3 4 8 13 16 20 24 28 33 38 40 45 51 56 61 67 69 75 78 74 77 78 85 90 84 84 77 72 72 73 66 64
12 13 17 14 12 13 15 17 17 19 18 19 21 22 25 27 33 42 46 49 53 56 58 62 65 67 67 69 70 72 69 71 72 73 79 72 72 73 83 84 79 67 64
13 8 9 9 10 9 12 17 23 26 29 32 35 38 41 42 46 52 57 61 63 66 72 74 75 77 78 77 73 67 65 69 80 84 89 83 78 74 58 60 68 68 73
12 10 13 16 19 22 26 32 37 41 43 45 47 49 49 48 47 47 47 50 54 57 61 65 69 70 72 73 75 74 74 73 70 70 79 81 79 77 80 75 61 67 70
28 32 34 36 37 41 45 47 49 51 53 54 51 47 46 47 49 51 56 61 65 66 68 69 70 71 70 68 65 69 78 81 82 84 87 90 90 87 79 73 71 75 77
24 34 40 46 49 52 55 58 59 60 58 57 57 59 62 65 62 57 52 49 50 49 47 45 46 48 46 45 50 54 58 63 62 62 60 59 56 53 60 65 72 75 78
24 30 39 45 53 58 59 60 60 62 66 69 72 69 63 53 42 38 33 40 46 52 55 56 53 50 43 42 46 50 60 66 65 67 73 62 54 55 58 61 64 73 75
27 36 41 42 47 52 57 59 64 71 78 68 58 50 44 37 29 31 37 47 46 49 53 56 54 55 58 53 49 50 53 55 59 65 68 71 74 72 74 64 58 65 71
35 41 46 51 53 57 64 70 75 76 61 51 47 40 33 29 33 37 43 42 44 49 56 59 59 58 59 59 57 57 59 60 59 61 61 64 65 70 62 51 48 50 58
48 53 58 62 65 68 73 76 69 52 45 42 36 33 35 36 37 43 46 52 57 55 54 59 63 64 59 55 53 50 46 43 43 50 48 50 50 49 47 43 38 39 40
67 66 66 68 68 63 55 45 41 36 33 29 29 34 37 38 43 49 58 61 52 52 51 47 51 50 46 43 46 39 30 29 37 46 48 47 49 48 51 44 40 35 41
63 61 56 47 40 34 29 28 27 23 21 26 27 29 37 45 50 54 49 42 45 45 48 46 41 38 39 39 28 17 18 28 42 43 52 60 59 51 49 34 34 40 47
45 36 29 26 25 25 24 19 14 16 12 11 13 26 36 43 48 40 34 38 36 34 35 36 38 39 33 23 21 26 34 37 35 45 56 46 42 33 34 39 40 41 46
22 20 20 21 21 20 22 24 24 11 9 9 19 26 35 39 35 34 34 30 28 27 30 29 32 27 29 34 36 38 38 43 51 48 41 49 43 44 34 33 38 42 43
13 15 19 19 19 19 20 21 20 20 20 19 22 26 26 29 31 30 29 30 33 30 29 25 18 27 41 42 39 49 53 39 39 44 45 20 13 2 22 30 24 29 36
12 18 20 19 18 18 17 17 19 20 21 22 22 22 28 29 29 24 24 29 30 30 23 11 17 35 39 46 58 52 41 38 39 36 34 6 5 7 35 22 12 14 19
10 12 15 17 18 20 23 26 27 29 30 30 31 33 33 32 34 33 29 29 25 32 17 16 23 40 39 47 56 62 55 61 34 28 21 11 6 17 26 20 21 13 30
12 17 21 25 29 29 28 29 32 38 41 39 37 33 30 32 34 36 35 28 24 24 18 15 30 37 36 42 49 55 57 59 59 33 27 20 17 20 22 18 20 30 34
31 30 31 34 35 37 41 44 43 41 42 45 44 41 37 36 36 36 33 29 24 15 14 19 26 31 33 41 45 46 48 56 62 57 39 32 34 30 23 20 11 18 33
43 45 44 44 44 44 45 47 47 48 50 50 51 51 49 49 46 43 39 32 25 20 15 17 23 31 33 34 36 40 43 46 50 55 55 43 36 32 18 12 15 20 30
32 33 33 33 36 38 40 42 42 48 48 50 53 54 55 56 56 52 47 40 31 24 22 20 21 31 39 35 34 33 36 37 41 45 49 48 27 45 10 6 10 30 37
36 37 36 35 36 38 39 40 41 43 45 48 51 54 56 56 58 59 56 50 44 39 31 26 26 29 31 33 36 35 33 33 36 37 38 45 38 48 31 11 22 22 31
27 30 33 33 34 37 39 41 43 44 46 46 48 52 56 58 58 58 57 56 54 51 48 42 36 31 30 32 35 38 38 39 37 37 36 37 40 36 32 13 3 23 35
Wind_Direction_850mb
104 106 97 41 310 328 326 287 294 273 265 261 256 247 256 258 241 232 236 250 241 247 240 244 253 263 267 275 276 275 275 276 280 287 286 288 288 290 287 287 283 282 296
94 91 78 84 85 85 84 82 80 83 78 46 273 331 313 268 256 267 258 254 247 249 253 262 268 275 281 282 281 280 279 277 280 281 283 285 286 293 290 285 274 280 296
107 106 105 96 94 86 84 86 68 52 40 57 87 113 230 253 247 243 247 247 251 256 260 263 266 269 271 271 274 277 279 281 278 279 282 284 285 285 285 280 271 282 284
86 73 60 37 27 18 4 354 339 327 305 298 266 257 258 263 268 265 257 256 260 262 264 265 264 265 267 269 269 268 269 270 273 275 279 282 282 283 280 278 275 275 279
38 37 44 29 360 326 315 315 317 320 316 303 289 281 276 270 270 271 272 273 273 272 270 267 266 267 268 270 272 271 273 275 277 277 277 280 280 273 270 275 273 274 273
333 355 26 8 351 347 323 320 315 312 310 307 302 297 294 290 283 279 277 277 278 278 276 276 279 280 282 283 284 287 284 279 277 276 275 273 275 275 277 272 270 266 267
335 329 318 317 313 310 308 305 304 306 306 304 303 303 303 303 302 300 296 291 287 286 286 286 285 283 283 283 282 280 278 277 275 277 274 274 277 277 276 272 266 268 267
323 324 313 308 306 303 303 306 306 306 308 310 310 310 309 307 304 298 294 290 287 286 284 284 285 287 287 287 288 284 280 280 281 280 277 277 275 274 275 273 272 270 269
317 315 311 309 308 309 311 314 316 315 314 310 308 306 304 302 301 300 300 297 296 298 299 301 303 303 301 296 290 289 286 284 283 282 282 279 274 271 270 274 272 268 264
317 299 302 305 305 309 313 315 314 313 312 309 305 304 303 304 306 307 303 305 307 310 310 311 312 314 309 296 290 292 291 292 293 289 279 278 272 269 267 266 267 259 255
298 301 303 305 307 308 309 309 311 312 312 309 308 309 307 309 308 310 311 309 313 313 314 314 314 311 308 303 298 292 293 297 293 290 285 274 272 274 276 269 262 252 248
293 296 299 302 303 305 306 308 309 310 309 309 308 309 315 317 320 316 313 318 323 319 314 312 310 309 309 304 297 296 292 287 285 289 289 285 277 278 284 276 263 251 241
299 299 298 298 300 300 302 304 307 307 310 314 325 331 332 335 329 319 319 323 323 318 315 313 312 308 302 298 297 299 293 287 281 286 288 287 287 286 286 279 265 253 245
304 301 299 299 299 300 302 303 306 312 316 322 327 330 328 329 327 326 323 323 321 316 314 310 306 305 303 304 304 302 289 283 299 308 301 293 294 279 276 270 267 261 248
305 306 307 308 309 310 314 321 320 323 319 320 326 326 326 326 326 319 317 321 323 322 317 323 327 327 324 318 323 324 321 307 308 303 294 290 287 276 273 267 264 254 255
309 314 319 325 328 330 331 336 348 351 349 336 313 314 323 319 320 324 327 328 328 328 336 346 350 346 337 355 349 330 321 310 306 305 306 300 287 282 262 258 258 251 251
324 336 340 339 344 350 351 350 351 19 2 339 324 326 325 326 331 333 333 335 339 352 354 352 350 0 3 353 343 333 317 308 313 315 305 302 291 278 275 262 260 257 253
357 5 349 345 345 344 344 345 347 353 348 339 337 331 336 347 347 343 341 344 353 1 358 354 15 3 355 360 346 334 339 347 337 339 338 328 332 186 292 277 233 225 227
30 19 24 23 23 23 23 21 16 9 1 351 341 354 8 5 359 358 359 4 3 6 2 11 359 360 7 2 358 353 358 356 345 346 354 152 155 333 336 224 199 211 200
35 28 34 37 42 50 54 55 46 37 30 23 15 9 8 5 11 14 15 14 13 18 28 359 357 5 17 6 13 25 23 14 16 11 15 347 213 340 8 87 112 146 159
69 71 74 78 74 66 57 51 46 47 42 37 31 25 17 16 17 17 18 17 13 12 18 356 360 3 8 5 14 24 20 15 29 45 38 40 14 5 54 102 66 125 150
90 88 84 78 75 70 66 60 54 52 52 47 42 39 33 31 28 23 20 20 16 360 348 337 334 344 351 360 6 11 13 15 17 28 34 27 39 39 44 81 99 100 140
94 90 85 81 76 72 69 66 61 55 54 52 48 44 40 38 34 30 25 22 18 9 341 316 314 317 329 339 356 359 3 7 10 12 16 12 36 19 3 94 80 152 174
85 86 82 75 73 70 65 64 59 60 54 52 50 47 44 43 39 35 32 27 25 19 7 349 324 298 303 310 323 340 347 354 357 3 7 9 10 352 90 233 151 165 156
80 82 80 75 71 68 66 62 58 56 53 51 50 48 45 43 42 38 36 33 30 26 19 3 352 343 334 322 316 311 313 324 336 344 353 357 6 13 47 99 168 155 166
86 78 73 73 71 66 62 59 56 53 51 49 47 45 44 42 41 38 35 32 31 31 28 23 13 359 344 334 324 315 306 298 302 314 327 338 353 7 26 59 81 205 198